Weather History for KBDH - November, 2012

Change the Weather History Date:

Friday, November 2, 2012

  Actual Average (KLJF) Record (KLJF)
Temperature  
Mean Temperature 34 °F -  
Max Temperature 39 °F 48 °F 73 °F (1978)
Min Temperature 28 °F 30 °F 3 °F (1951)
Degree Days  
Heating Degree Days 32    
Moisture  
Dew Point 25 °F    
Average Humidity 70    
Maximum Humidity 80    
Minimum Humidity 60    
Precipitation  
Precipitation 0.00 in - - ()
Sea Level Pressure  
Sea Level Pressure 30.12 in    
Wind  
Wind Speed 6 mph (ENE)    
Max Wind Speed 13 mph    
Max Gust Speed 16 mph    
Visibility 10 miles    
Events      
Averages and records for this station are not official NWS values.
T = Trace of Precipitation, MM = Missing Value Source: NWS Daily Summary

Daily Weather History Graph

Daily Weather History Graph

Search for Another Location

Airport or City:

Trip Planner

Search our weather history database for the weather conditions in past years. The results will help you decide how hot, cold, wet, or windy it might be!

Date:

Astronomy

Nov. 02, 2012 Rise Set
Actual Time 8:01 AM CDT 6:06 PM CDT
Civil Twilight 7:30 AM CDT 6:36 PM CDT
Nautical Twilight 6:55 AM CDT 7:11 PM CDT
Astronomical Twilight 6:21 AM CDT 7:46 PM CDT
Moon 8:48 PM CDT (11/2) 11:28 AM CDT (11/2)
Length of Visible Light 11h 06m
Length of Day
10h 04m
Waning Gibbous, 87% of the Moon is Illuminated
Nov 2
Waning Gibbous
Nov 6
Last Quarter
Nov 13
New
Nov 20
First Quarter
Nov 28
Full

Hourly Weather History & Observations

Time (CDT) Temp. Windchill Dew Point Humidity Pressure Visibility Wind Dir Wind Speed Gust Speed Precip Events Conditions
12:15 AM 30.2 °F 25.4 °F 23.0 °F 75% 30.08 in 10.0 mi NNE 4.6 mph - N/A   Clear
12:35 AM 30.2 °F 24.3 °F 23.0 °F 75% 30.08 in 10.0 mi NNE 5.8 mph - N/A   Clear
12:56 AM 30.2 °F 25.4 °F 23.0 °F 75% 30.09 in 10.0 mi NNE 4.6 mph - N/A   Clear
1:15 AM 30.2 °F 24.3 °F 23.0 °F 75% 30.09 in 10.0 mi NNE 5.8 mph - N/A   Clear
1:35 AM 28.4 °F 22.2 °F 21.2 °F 74% 30.09 in 10.0 mi NE 5.8 mph - N/A   Clear
1:55 AM 28.4 °F 24.6 °F 21.2 °F 74% 30.09 in 10.0 mi NE 3.5 mph - N/A   Clear
2:15 AM 28.4 °F 22.2 °F 23.0 °F 80% 30.09 in 10.0 mi ENE 5.8 mph - N/A   Clear
2:36 AM 30.2 °F 23.4 °F 24.8 °F 80% 30.09 in 10.0 mi ENE 6.9 mph - N/A   Clear
2:55 AM 30.2 °F 22.6 °F 23.0 °F 75% 30.10 in 10.0 mi ENE 8.1 mph - N/A   Clear
3:15 AM 30.2 °F 21.9 °F 23.0 °F 75% 30.08 in 10.0 mi ENE 9.2 mph - N/A   Clear
3:36 AM 30.2 °F 21.3 °F 24.8 °F 80% 30.08 in 10.0 mi ENE 10.4 mph - N/A   Clear
3:55 AM 30.2 °F 21.9 °F 24.8 °F 80% 30.09 in 10.0 mi ENE 9.2 mph - N/A   Clear
4:15 AM 30.2 °F 21.9 °F 24.8 °F 80% 30.08 in 10.0 mi ENE 9.2 mph - N/A   Clear
4:36 AM 30.2 °F 20.8 °F 24.8 °F 80% 30.08 in 10.0 mi East 11.5 mph 16.1 mph N/A   Clear
4:55 AM 30.2 °F 21.3 °F 24.8 °F 80% 30.08 in 10.0 mi East 10.4 mph - N/A   Clear
5:15 AM 30.2 °F 20.8 °F 24.8 °F 80% 30.08 in 10.0 mi East 11.5 mph - N/A   Clear
5:35 AM 30.2 °F 20.8 °F 24.8 °F 80% 30.09 in 10.0 mi East 11.5 mph - N/A   Clear
5:55 AM 30.2 °F 20.2 °F 23.0 °F 75% 30.08 in 10.0 mi East 12.7 mph - N/A   Clear
6:15 AM 30.2 °F 21.9 °F 24.8 °F 80% 30.09 in 10.0 mi East 9.2 mph - N/A   Clear
6:36 AM 30.2 °F 22.6 °F 24.8 °F 80% 30.10 in 10.0 mi East 8.1 mph - N/A   Clear
6:55 AM 30.2 °F 22.6 °F 24.8 °F 80% 30.10 in 10.0 mi East 8.1 mph - N/A   Clear
7:15 AM 30.2 °F 22.6 °F 24.8 °F 80% 30.11 in 10.0 mi East 8.1 mph - N/A   Clear
7:36 AM 30.2 °F 21.9 °F 24.8 °F 80% 30.11 in 10.0 mi East 9.2 mph - N/A   Clear
7:55 AM 30.2 °F 21.9 °F 24.8 °F 80% 30.11 in 10.0 mi East 9.2 mph - N/A   Clear
8:15 AM 30.2 °F 22.6 °F 24.8 °F 80% 30.11 in 10.0 mi East 8.1 mph - N/A   Clear
8:35 AM 30.2 °F 23.4 °F 24.8 °F 80% 30.12 in 10.0 mi East 6.9 mph - N/A   Clear
8:55 AM 32.0 °F 24.8 °F 24.8 °F 75% 30.13 in 10.0 mi East 8.1 mph - N/A   Clear
9:15 AM 32.0 °F 24.2 °F 24.8 °F 75% 30.13 in 10.0 mi East 9.2 mph - N/A   Clear
9:35 AM 32.0 °F 24.8 °F 24.8 °F 75% 30.14 in 10.0 mi East 8.1 mph - N/A   Clear
9:55 AM 33.8 °F 25.3 °F 24.8 °F 70% 30.13 in 10.0 mi East 11.5 mph - N/A   Clear
10:15 AM 33.8 °F 25.3 °F 24.8 °F 70% 30.15 in 10.0 mi East 11.5 mph - N/A   Clear
10:35 AM 33.8 °F 25.8 °F 24.8 °F 70% 30.15 in 10.0 mi ENE 10.4 mph - N/A   Clear
10:55 AM 33.8 °F 27.7 °F 24.8 °F 70% 30.16 in 10.0 mi ENE 6.9 mph - N/A   Clear
11:15 AM 33.8 °F 27.0 °F 24.8 °F 70% 30.16 in 10.0 mi East 8.1 mph - N/A   Clear
11:35 AM 35.6 °F 29.2 °F 24.8 °F 65% 30.16 in 10.0 mi ENE 8.1 mph - N/A   Clear
11:55 AM 35.6 °F 29.9 °F 24.8 °F 65% 30.16 in 10.0 mi East 6.9 mph - N/A   Clear
12:15 PM 35.6 °F 29.9 °F 24.8 °F 65% 30.16 in 10.0 mi East 6.9 mph - N/A   Clear
12:35 PM 35.6 °F 31.7 °F 26.6 °F 70% 30.16 in 10.0 mi SE 4.6 mph - N/A   Clear
12:55 PM 35.6 °F 30.7 °F 24.8 °F 65% 30.15 in 10.0 mi East 5.8 mph - N/A   Clear
1:15 PM 37.4 °F 33.8 °F 26.6 °F 65% 30.15 in 10.0 mi East 4.6 mph - N/A   Clear
1:35 PM 37.4 °F 32.8 °F 26.6 °F 65% 30.14 in 10.0 mi East 5.8 mph - N/A   Clear
1:55 PM 37.4 °F 32.8 °F 26.6 °F 65% 30.14 in 10.0 mi East 5.8 mph - N/A   Clear
2:15 PM 37.4 °F 34.9 °F 26.6 °F 65% 30.14 in 10.0 mi ENE 3.5 mph - N/A   Clear
2:35 PM 37.4 °F - 26.6 °F 65% 30.13 in 10.0 mi Calm Calm - N/A   Clear
2:55 PM 37.4 °F 32.8 °F 26.6 °F 65% 30.12 in 10.0 mi East 5.8 mph - N/A   Clear
3:15 PM 39.2 °F 35.9 °F 26.6 °F 61% 30.12 in 10.0 mi ENE 4.6 mph - N/A   Clear
3:35 PM 39.2 °F 37.0 °F 26.6 °F 61% 30.11 in 10.0 mi ESE 3.5 mph - N/A   Clear
3:55 PM 39.2 °F - 26.6 °F 61% 30.12 in 10.0 mi Calm Calm - N/A   Scattered Clouds
4:15 PM 39.2 °F - 26.6 °F 61% 30.12 in 10.0 mi Calm Calm - N/A   Mostly Cloudy
4:35 PM 39.2 °F 35.9 °F 26.6 °F 61% 30.12 in 10.0 mi ENE 4.6 mph - N/A   Overcast
4:55 PM 39.2 °F 35.0 °F 26.6 °F 61% 30.12 in 10.0 mi East 5.8 mph - N/A   Overcast
5:15 PM 37.4 °F 32.1 °F 26.6 °F 65% 30.12 in 10.0 mi ENE 6.9 mph - N/A   Overcast
5:35 PM 37.4 °F 32.1 °F 26.6 °F 65% 30.12 in 10.0 mi ENE 6.9 mph - N/A   Overcast
5:55 PM 37.4 °F 33.8 °F 26.6 °F 65% 30.12 in 10.0 mi East 4.6 mph - N/A   Overcast
6:15 PM 37.4 °F 32.8 °F 24.8 °F 60% 30.12 in 10.0 mi ENE 5.8 mph - N/A   Overcast
6:35 PM 37.4 °F 33.8 °F 26.6 °F 65% 30.13 in 10.0 mi ENE 4.6 mph - N/A   Overcast
6:55 PM 37.4 °F 33.8 °F 26.6 °F 65% 30.14 in 10.0 mi NE 4.6 mph - N/A   Overcast
7:15 PM 37.4 °F 33.8 °F 26.6 °F 65% 30.15 in 10.0 mi ENE 4.6 mph - N/A   Overcast
7:35 PM 37.4 °F 34.9 °F 26.6 °F 65% 30.15 in 10.0 mi NE 3.5 mph - N/A   Overcast
7:55 PM 37.4 °F - 26.6 °F 65% 30.16 in 10.0 mi Calm Calm - N/A   Overcast
8:15 PM 37.4 °F - 26.6 °F 65% 30.16 in 10.0 mi Calm Calm - N/A   Overcast
8:35 PM 37.4 °F 33.8 °F 26.6 °F 65% 30.16 in 10.0 mi ENE 4.6 mph - N/A   Overcast
8:55 PM 37.4 °F 33.8 °F 26.6 °F 65% 30.15 in 10.0 mi East 4.6 mph - N/A   Overcast
9:15 PM 37.4 °F 32.8 °F 26.6 °F 65% 30.15 in 10.0 mi East 5.8 mph - N/A   Overcast
9:35 PM 37.4 °F 33.8 °F 26.6 °F 65% 30.16 in 10.0 mi East 4.6 mph - N/A   Overcast
9:55 PM 37.4 °F 34.9 °F 26.6 °F 65% 30.16 in 10.0 mi East 3.5 mph - N/A   Overcast
10:35 PM 37.4 °F - 26.6 °F 65% 30.16 in 10.0 mi Calm Calm - N/A   Overcast
10:56 PM 37.4 °F - 26.6 °F 65% 30.17 in 10.0 mi Calm Calm - N/A   Overcast
11:15 PM 37.4 °F - 26.6 °F 65% 30.17 in 10.0 mi Calm Calm - N/A   Overcast
11:35 PM 37.4 °F - 26.6 °F 65% 30.17 in 10.0 mi Calm Calm - N/A   Overcast
11:56 PM 37.4 °F - 26.6 °F 65% 30.17 in 10.0 mi Calm Calm - N/A   Overcast